Regional Weather Roundup
Issued by NWS Green Bay, WI

Home | Current Version | Previous Version | Graphics & Text | Print | Product List | Glossary Off
Versions: 1 2 3 4 5 6 7 8 9 10 11 12 13 14 15 16 17 18 19 20 21 22 23 24 25 26 27 28 29 30 31 32 33 34 35 36 37 38 39 40 41 42 43 44 45 46 47 48 49 50

000
ASUS43 KGRB 301700
RWRGRB

NORTH-CENTRAL AND NORTHEAST WISCONSIN REGIONAL WEATHER ROUNDUP
NATIONAL WEATHER SERVICE GREEN BAY WI
1200 PM CDT SAT MAY 30 2015

WIZ005-009-010>012-018-019-301800-
NORTH CENTRAL WISCONSIN

CITY           SKY/WX    TMP DP  RH WIND       PRES   REMARKS
IRONWOOD       CLOUDY    43  36  75 N9        30.26R
MANITOWISH WTR NOT AVBL
ARBOR VITAE    NOT AVBL
EAGLE RIVER    NOT AVBL
LAND O LAKES   NOT AVBL
RHINELANDER    CLOUDY    52  43  71 NE12G20   30.20R
PHILLIPS       NOT AVBL
ANTIGO         NOT AVBL
TOMAHAWK       NOT AVBL
MERRILL        NOT AVBL
$$

WIZ013-073-301800-
NORTHEAST WISCONSIN

CITY           SKY/WX    TMP DP  RH WIND       PRES   REMARKS
IRON MOUNTAIN  CLOUDY    50  40  68 N12G20    30.20R
MARINETTE      CLOUDY    54  39  58 NE17G24   30.16S
$$

WIZ017-030-035>037-045-301800-
CENTRAL WISCONSIN

CITY           SKY/WX    TMP DP  RH WIND       PRES   REMARKS
MEDFORD        NOT AVBL
WAUSAU         CLOUDY    56  45  66 NE10      30.16R
MOSINEE        CLOUDY    55  50  82 NE13G18   30.17R
MARSHFIELD     CLOUDY    57  48  72 NE12      30.16R
WISC RAPIDS    CLOUDY    55  49  80 NE10      30.17R
STEVENS POINT  NOT AVBL
WAUPACA        NOT AVBL
SHAWANO        NOT AVBL
CLINTONVILLE   CLOUDY    54  48  82 NE9       30.16S
$$

WIZ038-039-048-051-301800-
FOX VALLEY

CITY           SKY/WX    TMP DP  RH WIND       PRES   REMARKS
NWS GREEN BAY  LGT RAIN  52  48  86 N12       30.17R FOG
APPLETON       LGT RAIN  50  50 100 NE9       30.16R
OSHKOSH        LGT RAIN  51  45  79 NE21G30   30.14R
FOND DU LAC    RAIN      51  49  92 NE21      30.14R FOG
$$

WIZ022-050-052-301800-
EAST CENTRAL WISCONSIN

CITY           SKY/WX    TMP DP  RH WIND       PRES   REMARKS
STURGEON BAY   CLOUDY    50  41  71 N18       30.18R
MANITOWOC      NOT AVBL
SHEBOYGAN      RAIN      48  46  93 N15G25    30.13R FOG
$$

LMZ563-521-522-541>543-301800-
LAKESHORE

STATION/POSITION TIME  TEMP    WIND        PRES    VSBY  WAVE
                       AIR SEA DIR/SP/G                  HT/PER
                 (UTC) (F)     (DEG/KT/KT) (MB)    (MI)  (FT/S)
SHEBOYGAN LKSHOR 1600   45      10/ 22/ 25 1020.2R
KEWAUNEE LKSHORE 1600   47      30/  7/ 12 1019.8R
ALGOMA MARINA    1608           30/  4/  7   N/A
NORTHPORT PIER   1620   51     350/ 17/ 24 1021.3R
N MID LAKE BUOY  1550   41 37  330/  6/  8 1020.8R         2/ 4
CHAMBERS ISLAND  1600   51     360/ 17/ 20 1021.0R
MENOMINEE LKSHOR 1600   52      10/ 18/ 20 1021.5R
$$


USA.gov is the U.S. government's official web portal to all federal, state and local government web resources and services.